Retour au catalogue

STARLINK-35071

ActifCommunicationsVLEO
NORAD 65477·PAYLOAD·🇺🇸 United States

Lancé Sep 3, 2025 depuis Cape Canaveral Space Force Station

Loading…

Prochains Passages (prochaines 24 heures)

TLE

FraisSource: CelesTrak SupGP

Époque: Sep 15, 2026, 02:59 UTC

1 65477C 25195V   26258.12479167 -.00007735  00000+0 -22855-3 0  2587
2 65477  53.1563  94.9425 0001251  86.8321 286.2048 15.34389891    16

Suivez STARLINK-35071 en temps réel avec AllMySat

Download on the App Store